This is the latest recevied weather packets stored in our database for station/object HB9TJR-3. If no packets are shown the sender has not sent any weather packets the latest 10 day(s).
| Time | Temp. | Humidity | Pressure | Rain* | Wind** | Luminosity | Snow |
|---|---|---|---|---|---|---|---|
| 1787899720 | 15° C | 92% | 865.4 hPa | 0 mm | - | - | - |
| 1787899171 | 15° C | 92% | 865.4 hPa | 0 mm | - | - | - |
| 1787898211 | 15° C | 88% | 865.4 hPa | 0 mm | - | - | - |
| 1787897254 | 17.78° C | 88% | 864.9 hPa | 0 mm | - | - | - |
| 1787897252 | 17.78° C | 88% | 864.9 hPa | 0 mm | - | - | - |
| 1787896294 | 17.78° C | 89% | 864.5 hPa | 0 mm | - | - | - |
| 1787896292 | 17.78° C | 89% | 864.5 hPa | 0 mm | - | - | - |
| 1787895334 | 18.33° C | 86% | 863.7 hPa | 0 mm | - | - | - |
| 1787895331 | 18.33° C | 86% | 863.7 hPa | 0 mm | - | - | - |
| 1787894371 | 18.33° C | 81% | 864.8 hPa | 0 mm | - | - | - |
| 1787893411 | 18.33° C | 81% | 864.7 hPa | 0 mm | - | - | - |
| 1787892451 | 18.33° C | 82% | 865.5 hPa | 0 mm | - | - | - |
| 1787891490 | 18.33° C | 82% | 865.5 hPa | 0 mm | - | - | - |
| 1787889571 | 18.33° C | 82% | 865.4 hPa | 0 mm | - | - | - |
| 1787889226 | 18.89° C | 81% | 866 hPa | 0 mm | - | - | - |
| 1787888611 | 18.89° C | 81% | 866 hPa | 0 mm | - | - | - |
| 1787887651 | 18.89° C | 82% | 866.3 hPa | 0 mm | - | - | - |
| 1787886691 | 18.89° C | 82% | 866.4 hPa | 0 mm | - | - | - |
| 1787884771 | 18.89° C | 82% | 866.1 hPa | 0 mm | - | - | - |
| 1787884318 | 18.89° C | 84% | 866 hPa | 0 mm | - | - | - |
| 1787883811 | 18.89° C | 84% | 866 hPa | 0 mm | - | - | - |
| 1787882851 | 18.89° C | 85% | 865.9 hPa | 0 mm | - | - | - |
| 1787882579 | 18.89° C | 85% | 865.9 hPa | 0 mm | - | - | - |
| 1787881891 | 18.89° C | 85% | 865.9 hPa | 0 mm | - | - | - |
| 1787880931 | 18.89° C | 87% | 866.2 hPa | 0 mm | - | - | - |
* Rain latest hour (hover to see other rain measurements)
** Current wind speed in m/s (hover to see current wind gust speed)